Bloomington, IL

6:45 AM CDT on April 27, 2017 (GMT -0500)
Central Ill Regional

Weather History for KBMI - February, 2014

Change the Weather History Date:

Tuesday, February 25, 2014

  Actual Average Record
Temperature  
Mean Temperature 14 °F -  
Max Temperature 21 °F 31 °F 59 °F (2009)
Min Temperature 6 °F 19 °F 0 °F (2003)
Degree Days  
Heating Degree Days 51    
Moisture  
Dew Point 8 °F    
Average Humidity 73    
Maximum Humidity 86    
Minimum Humidity 56    
Precipitation  
Precipitation 0.00 in - - ()
Sea Level Pressure  
Sea Level Pressure 30.30 in    
Wind  
Wind Speed 13 mph (NW)    
Max Wind Speed 24 mph    
Max Gust Speed 26 mph    
Visibility 7 miles    
Events Snow    
Averages and records for this station are not official NWS values.
T = Trace of Precipitation, MM = Missing Value Source: NWS Daily Summary

Daily Weather History Graph

Daily Weather History Graph

Search for Another Location

Airport or City:

Trip Planner

Search our weather history database for the weather conditions in past years. The results will help you decide how hot, cold, wet, or windy it might be!

Date:

Astronomy

Feb. 25, 2014 Rise Set
Actual Time 6:35 AM CST 5:42 PM CST
Civil Twilight 6:07 AM CST 6:10 PM CST
Nautical Twilight 5:36 AM CST 6:41 PM CST
Astronomical Twilight 5:04 AM CST 7:13 PM CST
Moon 3:30 AM CST (2/25) 1:47 PM CST (2/25)
Length of Visible Light 12h 02m
Length of Day
11h 07m
Waning Crescent, 18% of the Moon is Illuminated
Feb 25
Waning Crescent
Mar 1
New
Mar 8
First Quarter
Mar 16
Full
Mar 23
Last Quarter

Hourly Weather History & Observations

Time (CST) Temp. Windchill Dew Point Humidity Pressure Visibility Wind Dir Wind Speed Gust Speed Precip Events Conditions
12:56 AM 19.0 °F 4.5 °F 10.0 °F 68% 30.32 in 10.0 mi NNW 16.1 mph - 0.00 in Snow Light Snow
1:07 AM 19.4 °F 5.5 °F 10.4 °F 68% 30.25 in 4.0 mi NNW 15.0 mph - 0.00 in Snow Light Snow
1:17 AM 17.6 °F 3.7 °F 10.4 °F 73% 30.25 in 3.0 mi NNW 13.8 mph - 0.00 in Snow Light Snow
1:23 AM 17.6 °F 4.3 °F 10.4 °F 73% 30.25 in 1.8 mi NNW 12.7 mph - 0.00 in Snow Light Snow
1:30 AM 17.6 °F 3.2 °F 10.4 °F 73% 30.25 in 1.5 mi NNW 15.0 mph - 0.00 in Snow Light Snow
1:35 AM 15.8 °F 2.1 °F 12.2 °F 86% 30.25 in 2.0 mi North 12.7 mph - 0.00 in Snow Light Snow
1:45 AM 15.8 °F 2.7 °F 12.2 °F 86% 30.25 in 3.0 mi NNW 11.5 mph - 0.00 in Snow Light Snow
1:56 AM 16.2 °F 4.7 °F 12.0 °F 84% 30.32 in 9.0 mi NNW 9.2 mph - 0.00 in Snow Light Snow
2:56 AM 16.2 °F 3.9 °F 12.0 °F 84% 30.31 in 5.0 mi NW 10.4 mph - 0.00 in Snow Light Snow
3:05 AM 15.8 °F 4.2 °F 12.2 °F 86% 30.23 in 3.0 mi NNW 9.2 mph - 0.00 in Snow Light Snow
3:12 AM 15.8 °F 6.1 °F 12.2 °F 86% 30.23 in 2.5 mi NNW 6.9 mph - 0.00 in Snow Light Snow
3:35 AM 15.8 °F 5.1 °F 12.2 °F 86% 30.23 in 3.0 mi NW 8.1 mph - 0.00 in Snow Light Snow
3:56 AM 16.2 °F 6.5 °F 12.0 °F 84% 30.31 in 5.0 mi NW 6.9 mph - 0.00 in Snow Light Snow
4:22 AM 15.8 °F 2.7 °F 12.2 °F 86% 30.23 in 7.0 mi NW 11.5 mph - 0.00 in Snow Light Snow
4:56 AM 15.1 °F 4.2 °F 11.1 °F 84% 30.32 in 9.0 mi WNW 8.1 mph - 0.00 in Snow Light Snow
5:56 AM 14.0 °F 0.5 °F 10.0 °F 84% 30.32 in 7.0 mi NW 11.5 mph - 0.00 in   Mostly Cloudy
6:56 AM 13.1 °F 0.1 °F 9.1 °F 84% 30.33 in 5.0 mi NW 10.4 mph - N/A   Scattered Clouds
7:56 AM 14.0 °F 1.2 °F 9.1 °F 81% 30.35 in 10.0 mi NW 10.4 mph - N/A   Partly Cloudy
8:56 AM 15.1 °F 3.3 °F 10.0 °F 80% 30.34 in 10.0 mi NNW 9.2 mph - N/A   Scattered Clouds
9:56 AM 17.1 °F 5.0 °F 10.0 °F 74% 30.34 in 10.0 mi NW 10.4 mph - N/A   Scattered Clouds
10:56 AM 20.1 °F 6.9 °F 10.0 °F 65% 30.33 in 10.0 mi WNW 13.8 mph - N/A   Scattered Clouds
11:56 AM 20.1 °F 9.5 °F 10.0 °F 65% 30.32 in 10.0 mi NW 9.2 mph - N/A   Scattered Clouds
12:56 PM 21.0 °F 7.6 °F 11.1 °F 66% 30.31 in 10.0 mi WNW 15.0 mph - N/A   Mostly Cloudy
1:56 PM 20.1 °F 6.9 °F 9.1 °F 62% 30.32 in 10.0 mi NW 13.8 mph - N/A   Scattered Clouds
2:56 PM 20.1 °F 5.4 °F 9.1 °F 62% 30.31 in 10.0 mi WNW 17.3 mph - N/A   Scattered Clouds
3:56 PM 19.0 °F 5.0 °F 8.1 °F 62% 30.29 in 10.0 mi WNW 15.0 mph 21.9 mph N/A   Scattered Clouds
4:56 PM 18.1 °F 3.4 °F 7.2 °F 62% 30.28 in 10.0 mi NW 16.1 mph - N/A   Scattered Clouds
5:56 PM 15.1 °F -0.6 °F 3.0 °F 59% 30.30 in 10.0 mi NW 16.1 mph - 0.00 in   Scattered Clouds
6:56 PM 14.0 °F -0.8 °F 1.0 °F 56% 30.30 in 10.0 mi WNW 13.8 mph - N/A   Partly Cloudy
7:56 PM 11.1 °F -6.7 °F 2.1 °F 67% 30.32 in 10.0 mi WNW 18.4 mph - N/A   Clear
8:56 PM 9.1 °F -9.3 °F -2.9 °F 58% 30.34 in 10.0 mi WNW 18.4 mph - N/A   Clear
9:56 PM 8.1 °F -10.7 °F -2.9 °F 61% 30.34 in 10.0 mi NW 18.4 mph 26.5 mph N/A   Clear
10:56 PM 7.2 °F -14.2 °F -2.9 °F 63% 30.35 in 10.0 mi NW 24.2 mph - N/A   Partly Cloudy
11:56 PM 6.1 °F -13.8 °F -4.0 °F 63% 30.35 in 10.0 mi NW 19.6 mph - N/A   Clear